Weather History for Bentonville, AR

Change the Weather History Date:

Thursday, November 7, 2013

  Actual Average Record
Temperature  
Mean Temperature 44 °F -  
Max Temperature 60 °F 59 °F 80 °F (1963)
Min Temperature 28 °F 35 °F 15 °F (1959)
Degree Days  
Heating Degree Days 21    
Moisture  
Dew Point 32 °F    
Average Humidity 69    
Maximum Humidity 93    
Minimum Humidity 31    
Precipitation  
Precipitation 0.00 in - - ()
Sea Level Pressure  
Sea Level Pressure 30.37 in    
Wind  
Wind Speed 1 mph (WNW)    
Max Wind Speed 10 mph    
Max Gust Speed -    
Visibility 9 miles    
Events      
Averages and records for this station are not official NWS values.
T = Trace of Precipitation, MM = Missing Value Source: NWS Daily Summary

Daily Weather History Graph

Daily Weather History Graph

Search for Another Location

Airport:

Trip Planner

Search our weather history database for the weather conditions in past years. The results will help you decide how hot, cold, wet, or windy it might be!

Date:

Astronomy

Nov. 07, 2013 Rise Set
Actual Time 6:46 AM CST 5:14 PM CST
Civil Twilight 6:19 AM CST 5:41 PM CST
Nautical Twilight 5:48 AM CST 6:12 PM CST
Astronomical Twilight 5:18 AM CST 6:42 PM CST
Moon 10:53 AM CST (11/7) 9:28 PM CST (11/7)
Length of Visible Light 11h 22m
Length of Day
10h 28m
Waxing Crescent, 23% of the Moon is Illuminated
Nov 7
Waxing Crescent
Nov 9
First Quarter
Nov 17
Full
Nov 25
Last Quarter
Dec 2
New

Hourly Weather History & Observations

Time (CST) Temp. Windchill Dew Point Humidity Pressure Visibility Wind Dir Wind Speed Gust Speed Precip Events Conditions
12:15 AM 35.6 °F - 30.2 °F 81% 30.34 in 10.0 mi Calm Calm - N/A   Clear
12:35 AM 35.6 °F - 30.2 °F 81% 30.34 in 10.0 mi Calm Calm - N/A   Clear
12:55 AM 35.6 °F - 30.2 °F 81% 30.33 in 10.0 mi Calm Calm - N/A   Clear
1:15 AM 33.8 °F - 28.4 °F 81% 30.34 in 10.0 mi Calm Calm - N/A   Clear
1:35 AM 33.8 °F - 28.4 °F 81% 30.34 in 9.0 mi Calm Calm - N/A   Clear
1:55 AM 33.8 °F - 28.4 °F 81% 30.35 in 7.0 mi Calm Calm - N/A   Clear
2:15 AM 32.0 °F - 28.4 °F 87% 30.35 in 5.0 mi Calm Calm - N/A   Clear
2:35 AM 32.0 °F - 28.4 °F 87% 30.35 in 7.0 mi Calm Calm - N/A   Clear
2:55 AM 32.0 °F - 28.4 °F 87% 30.35 in 6.0 mi Calm Calm - N/A   Clear
3:15 AM 30.2 °F - 28.4 °F 93% 30.36 in 7.0 mi Calm Calm - N/A   Clear
3:35 AM 30.2 °F - 28.4 °F 93% 30.36 in 6.0 mi Calm Calm - N/A   Clear
3:55 AM 32.0 °F - 28.4 °F 87% 30.36 in 6.0 mi Calm Calm - N/A   Clear
4:15 AM 30.2 °F - 28.4 °F 93% 30.37 in 7.0 mi Calm Calm - N/A   Clear
4:35 AM 30.2 °F - 28.4 °F 93% 30.38 in 3.0 mi Calm Calm - N/A   Clear
4:55 AM 30.2 °F - 28.4 °F 93% 30.38 in 7.0 mi Calm Calm - N/A   Clear
5:15 AM 30.2 °F - 28.4 °F 93% 30.38 in 5.0 mi Calm Calm - N/A   Clear
5:35 AM 30.2 °F - 28.4 °F 93% 30.38 in 6.0 mi Calm Calm - N/A   Clear
5:55 AM 30.2 °F - 26.6 °F 86% 30.38 in 6.0 mi Calm Calm - N/A   Clear
6:15 AM 28.4 °F - 26.6 °F 93% 30.39 in 6.0 mi Calm Calm - N/A   Clear
6:35 AM 30.2 °F - 28.4 °F 93% 30.39 in 5.0 mi Calm Calm - N/A   Clear
6:55 AM 30.2 °F - 26.6 °F 86% 30.39 in 5.0 mi Calm Calm - N/A   Clear
7:15 AM 30.2 °F - 28.4 °F 93% 30.41 in 3.0 mi Calm Calm - N/A   Clear
7:35 AM 30.2 °F - 28.4 °F 93% 30.42 in 1.5 mi Calm Calm - N/A   Clear
7:55 AM 32.0 °F - 28.4 °F 87% 30.42 in 0.8 mi Calm Calm - N/A   Unknown
8:15 AM 35.6 °F - 32.0 °F 87% 30.43 in 5.0 mi Calm Calm - N/A   Clear
8:35 AM 37.4 °F - 33.8 °F 87% 30.43 in 8.0 mi Calm Calm - N/A   Clear
8:55 AM 39.2 °F - 35.6 °F 87% 30.43 in 8.0 mi Calm Calm - N/A   Clear
9:15 AM 42.8 °F - 35.6 °F 76% 30.44 in 10.0 mi Calm Calm - N/A   Clear
9:35 AM 44.6 °F - 35.6 °F 71% 30.44 in 10.0 mi Calm Calm - N/A   Clear
9:55 AM 46.4 °F - 35.6 °F 66% 30.44 in 10.0 mi Calm Calm - N/A   Clear
10:15 AM 48.2 °F - 37.4 °F 66% 30.44 in 10.0 mi Calm Calm - N/A   Clear
10:35 AM 48.2 °F - 37.4 °F 66% 30.43 in 10.0 mi WNW 3.5 mph - N/A   Clear
10:55 AM 50.0 °F - 39.2 °F 66% 30.43 in 10.0 mi Calm Calm - N/A   Clear
11:15 AM 51.8 °F - 37.4 °F 58% 30.42 in 10.0 mi Calm Calm - N/A   Clear
11:35 AM 53.6 °F - 35.6 °F 51% 30.42 in 10.0 mi NW 6.9 mph - N/A   Clear
11:55 AM 55.4 °F - 35.6 °F 47% 30.41 in 10.0 mi NW 5.8 mph - N/A   Clear
12:15 PM 55.4 °F - 33.8 °F 44% 30.40 in 10.0 mi NW 8.1 mph - N/A   Clear
12:35 PM 57.2 °F - 33.8 °F 41% 30.39 in 10.0 mi WNW 9.2 mph - N/A   Clear
12:55 PM 57.2 °F - 33.8 °F 41% 30.38 in 10.0 mi West 6.9 mph - N/A   Clear
1:15 PM 59.0 °F - 33.8 °F 39% 30.37 in 10.0 mi WNW 9.2 mph - N/A   Clear
1:35 PM 59.0 °F - 33.8 °F 39% 30.36 in 10.0 mi WNW 9.2 mph - N/A   Clear
1:55 PM 60.8 °F - 33.8 °F 36% 30.36 in 10.0 mi NW 8.1 mph - N/A   Clear
2:15 PM 60.8 °F - 30.2 °F 31% 30.35 in 10.0 mi WNW 8.1 mph - N/A   Clear
2:35 PM 60.8 °F - 33.8 °F 36% 30.35 in 10.0 mi WNW 10.4 mph - N/A   Clear
2:55 PM 60.8 °F - 32.0 °F 34% 30.34 in 10.0 mi WNW 9.2 mph - N/A   Clear
3:15 PM 60.8 °F - 32.0 °F 34% 30.34 in 10.0 mi NW 9.2 mph - N/A   Clear
3:35 PM 60.8 °F - 32.0 °F 34% 30.34 in 10.0 mi NW 4.6 mph - N/A   Clear
3:55 PM 60.8 °F - 30.2 °F 31% 30.34 in 10.0 mi NW 5.8 mph - N/A   Clear
4:15 PM 59.0 °F - 33.8 °F 39% 30.35 in 10.0 mi West 4.6 mph - N/A   Clear
4:35 PM 57.2 °F - 33.8 °F 41% 30.35 in 10.0 mi WNW 8.1 mph - N/A   Clear
4:55 PM 55.4 °F - 33.8 °F 44% 30.35 in 10.0 mi WNW 6.9 mph - N/A   Clear
5:15 PM 53.6 °F - 33.8 °F 47% 30.35 in 10.0 mi WNW 4.6 mph - N/A   Clear
5:35 PM 53.6 °F - 33.8 °F 47% 30.36 in 10.0 mi WNW 4.6 mph - N/A   Clear
5:55 PM 51.8 °F - 35.6 °F 54% 30.36 in 10.0 mi WNW 3.5 mph - N/A   Clear
6:15 PM 50.0 °F - 35.6 °F 58% 30.36 in 10.0 mi West 3.5 mph - N/A   Clear
6:35 PM 48.2 °F - 33.8 °F 58% 30.37 in 10.0 mi West 3.5 mph - N/A   Clear
6:55 PM 48.2 °F - 33.8 °F 58% 30.37 in 10.0 mi Calm Calm - N/A   Clear
7:15 PM 46.4 °F - 33.8 °F 62% 30.37 in 10.0 mi Calm Calm - N/A   Clear
7:35 PM 46.4 °F - 33.8 °F 62% 30.37 in 10.0 mi Calm Calm - N/A   Clear
7:55 PM 44.6 °F - 35.6 °F 71% 30.36 in 10.0 mi Calm Calm - N/A   Clear
8:15 PM 44.6 °F - 33.8 °F 66% 30.36 in 10.0 mi Calm Calm - N/A   Clear
8:35 PM 44.6 °F - 35.6 °F 71% 30.36 in 10.0 mi Calm Calm - N/A   Clear
8:55 PM 44.6 °F - 35.6 °F 71% 30.36 in 10.0 mi Calm Calm - N/A   Clear
9:15 PM 42.8 °F - 33.8 °F 70% 30.36 in 10.0 mi Calm Calm - N/A   Clear
9:35 PM 39.2 °F - 33.8 °F 81% 30.36 in 10.0 mi Calm Calm - N/A   Clear
9:55 PM 39.2 °F - 33.8 °F 81% 30.35 in 10.0 mi Calm Calm - N/A   Clear
10:15 PM 39.2 °F - 33.8 °F 81% 30.35 in 10.0 mi Calm Calm - N/A   Clear
10:35 PM 39.2 °F - 35.6 °F 87% 30.35 in 10.0 mi Calm Calm - N/A   Clear
10:55 PM 39.2 °F - 33.8 °F 81% 30.35 in 10.0 mi Calm Calm - N/A   Clear
11:15 PM 37.4 °F 34.9 °F 33.8 °F 87% 30.35 in 10.0 mi South 3.5 mph - N/A   Clear
11:35 PM 37.4 °F - 33.8 °F 87% 30.34 in 10.0 mi Calm Calm - N/A   Clear
11:55 PM 39.2 °F - 33.8 °F 81% 30.35 in 10.0 mi Calm Calm - N/A   Clear